CORVUS BC3 (43118 NORAD) Tracking and Keplerian Element Data

This shows tracking and keplerian element data for the satellite.

Feedback or suggestion? Click here.




ElementValue
Catalog43118
NameCORVUS BC3
Epoch Orbit26174
Epoch Day270.1395514
Epoch Year2022
RAAN341.5738
Inclination97.3543
Eccentricity0.0008903
Argument of Perigee13.2132
Mean Anonmoly346.934
Mean Motion15.28619492
Decay Rate9.788E-05
L11 43118U 18004H 22270.13955140 .00009788 00000+0 35379-3 0 9992
L22 43118 97.3543 341.5738 0008903 13.2132 346.9340 15.28619492261749

Live tracking and technical data element details for CORVUS BC3 (NORAD 43118). CORVUS BC3 can be tracked NOW for your location showing map with azimuth and elevation plus other details from your city location.

Track the satellite on the map from your city or location and see movement details for azimuth, elevation, latitude, longitude, range, height, and movement on the map or in text.







IsCatalogInMostPopularTable: catalog: 43118, numindb: 597
Update: records affected: 1



GetName: 43118 CORVUS BC3

Hit Count: updated at: Wed, 28 Sep 2022 21:30:01 GMT